[[{"header":{"parameterUnit":"m.s-1","parameterCategory":1,"la1":30.2991,"la2":30.254,"lo1":-89.0895,"lo2":-89.0444,"dy":0.0017,"dx":0.0017,"nx":28,"ny":28,"refTime":"2025-02-28T03:00:00:Z","depth":0,"parameterNumber":2,"parameterNumberName":"U-component_of_WINDS"},"data":[0,0,0,0,0,0,0,0,0,0,0,0,0,0,0,0,0,0,0,0,0,0,0,0,0,0,0,0,0,0,0,0,0,0,0,0,0,0,0,0,0,0,0,0,0,0,0,0,0,0,0,0,0,0,0,0,0,0,0.4025,0.4026,0,0.4111,0.4112,0.4113,0.4152,0.4151,0.4151,0.4151,0.424,0.4242,0.4244,0,0,0,0,0,0,0,0,0,0,0,0,0,0.3895,0.3897,0.4025,0.4026,0.4027,0.4111,0.4112,0.4113,0.4152,0.4151,0.4151,0.4151,0.4239,0.4242,0.4245,0,0,0,0,0,0,0,0,0,0,0,0,0,0.3963,0.3898,0.4025,0.4057,0.406,0.411,0.4112,0.4113,0.4152,0.4151,0.4151,0.4151,0.4238,0.4241,0.4245,0.427,0,0,0.4256,0.4258,0,0,0,0,0,0,0,0,0.3959,0.3968,0.4051,0.4054,0.4059,0.412,0.4098,0.4166,0.4152,0.4117,0.4151,0.4151,0.42,0.4207,0.4223,0.4274,0.4278,0.4256,0.4259,0.426,0.4261,0,0,0,0,0,0,0,0.3954,0.3964,0.4059,0.4052,0.4057,0.4066,0.4076,0.4111,0.4158,0.412,0.4123,0.4133,0.4202,0.422,0.4226,0.4279,0.4256,0.426,0.4262,0.4263,0.4355,0.4356,0,0,0,0,0,0,0.3944,0.396,0.4056,0.4062,0.4007,0.4069,0.408,0.4101,0.4158,0.4167,0.4133,0.4134,0.4213,0.4221,0.4229,0.4262,0.426,0.4264,0.4266,0.4355,0.4355,0.4356,0,0,0,0,0,0,0.3941,0.3953,0.4053,0.4012,0.4025,0.4071,0.4095,0.4102,0.412,0.4167,0.4176,0.4142,0.4214,0.4224,0.4259,0.4266,0.4265,0.4269,0.4355,0.4355,0.4355,0.4329,0,0,0,0,0,0,0.3937,0.3951,0.3961,0.4012,0.4027,0.4082,0.4095,0.4104,0.4126,0.4129,0.4178,0.4186,0.4214,0.4254,0.4263,0.4271,0.4271,0.4354,0.4355,0.4355,0.4329,0.4328,0.4327,0,0,0,0,0,0.3933,0.3951,0.3962,0.3973,0.4041,0.4082,0.4091,0.4123,0.4126,0.4137,0.4167,0.4185,0.4263,0.4257,0.4268,0.4277,0.4354,0.4355,0.4355,0.433,0.4328,0.4327,0,0,0,0,0,0,0.39,0.3958,0.3971,0.4006,0.4039,0.4089,0.4103,0.412,0.4153,0.4155,0.4192,0.4203,0.4236,0.426,0.4252,0.4304,0.431,0.4313,0.4287,0.4286,0.4285,0.4279,0.4274,0,0,0,0,0,0.3897,0.3926,0.3975,0.4001,0.4017,0.4057,0.4076,0.4097,0.4133,0.4148,0.4181,0.4215,0.4248,0.4268,0.4301,0.4333,0.4344,0.4344,0.4343,0.4342,0.4344,0.4362,0.4363,0.4357,0.4357,0.4357,0,0,0.3891,0.3926,0.3942,0.3995,0.4023,0.4052,0.4069,0.4099,0.4121,0.4152,0.4188,0.4214,0.4254,0.4288,0.4305,0.4309,0.4348,0.4343,0.4341,0.4344,0.4363,0.4364,0.4364,0.4358,0.4358,0.4358,0,0,0.3895,0.3924,0.3949,0.3977,0.4019,0.4046,0.4052,0.4099,0.4117,0.4153,0.4178,0.4204,0.4259,0.4287,0.4309,0.4322,0.4339,0.4332,0.4326,0.4344,0.4344,0.4345,0.435,0.4351,0.4333,0.4333,0.4333,0,0.3882,0.3927,0.396,0.3988,0.4011,0.4041,0.4066,0.4091,0.4142,0.4157,0.4161,0.423,0.426,0.43,0.4304,0.432,0.4328,0.4326,0.4342,0.4343,0.4344,0.4349,0.435,0.4332,0.4332,0.4332,0.4332,0,0.3909,0.394,0.3955,0.4003,0.4027,0.4053,0.409,0.411,0.4129,0.4155,0.4192,0.4228,0.4268,0.4279,0.4298,0.4323,0.4324,0.4334,0.4342,0.4342,0.4348,0.435,0.433,0.4331,0.4331,0.4331,0,0,0.3896,0.3961,0.3966,0.3988,0.4037,0.4061,0.4089,0.4128,0.4144,0.4178,0.4202,0.4248,0.4257,0.4282,0.4304,0.4319,0.4327,0.4328,0.4329,0.4326,0.4356,0.4349,0.435,0.4339,0.4339,0.434,0.4353,0,0.3906,0.3958,0.3988,0.4027,0.4055,0.4084,0.4108,0.414,0.4165,0.4193,0.422,0.4252,0.4262,0.4277,0.4293,0.4323,0.4334,0.4322,0.4362,0.4363,0.4351,0.4353,0.4345,0.4356,0.4355,0.4356,0.4356,0,0.3926,0.3959,0.4001,0.4046,0.4059,0.408,0.4118,0.4144,0.4181,0.4198,0.4224,0.4246,0.4277,0.4281,0.4323,0.4315,0.4332,0.4349,0.4351,0.4356,0.436,0.4359,0.4361,0.4362,0.436,0.4359,0.4359,0,0.3912,0.3967,0.3999,0.4017,0.407,0.4084,0.4107,0.4144,0.4165,0.4198,0.4213,0.4249,0.4268,0.4296,0.4327,0.4327,0.4366,0.4373,0.4381,0.438,0.4389,0.4388,0.4393,0.4399,0.4399,0.4399,0.4399,0,0.3921,0.3946,0.3994,0.4013,0.4041,0.4075,0.4102,0.4127,0.416,0.4185,0.4211,0.4234,0.4273,0.4301,0.4325,0.4357,0.4365,0.438,0.4386,0.4378,0.4376,0.4391,0.4391,0.44,0.44,0.4399,0.4399,0,0.3911,0.3944,0.3981,0.4028,0.404,0.4059,0.4099,0.4119,0.4145,0.4176,0.4185,0.4226,0.426,0.4293,0.4339,0.4355,0.4386,0.4395,0.4374,0.4377,0.4384,0.4383,0.4399,0.4403,0.4406,0.4406,0.4406,0,0.3915,0.3934,0.3983,0.4002,0.4024,0.4054,0.4075,0.4109,0.4131,0.4174,0.4189,0.4224,0.4255,0.4308,0.4341,0.4376,0.4386,0.4389,0.4391,0.4382,0.4386,0.4385,0.4387,0.4388,0.4388,0.4388,0.4388,0,0.3918,0.3933,0.3964,0.4,0.4025,0.4055,0.4086,0.4099,0.4139,0.4162,0.4197,0.422,0.4267,0.4302,0.434,0.4364,0.4382,0.4387,0.439,0.4382,0.437,0.4377,0.4371,0.4386,0.4386,0.4386,0.4387,0.4387,0.3915,0.3934,0.3971,0.4004,0.4031,0.4059,0.408,0.4108,0.4138,0.4178,0.4196,0.4231,0.4267,0.4321,0.4344,0.4372,0.4376,0.4382,0.4383,0.4384,0.4382,0.4364,0.4379,0.4379,0.4379,0.4379,0.4379,0,0.392,0.3945,0.3975,0.4017,0.4043,0.4058,0.4092,0.4113,0.4144,0.4175,0.4205,0.4245,0.4279,0.4314,0.435,0.4366,0.4375,0.4374,0.4374,0.4379,0.4376,0.4369,0.4366,0.4366,0.4366,0.4366,0.4366,0.4366,0.3926,0.3958,0.3977,0.4022,0.4048,0.4082,0.4101,0.4127,0.4152,0.4195,0.4224,0.4247,0.428,0.4319,0.4351,0.436,0.4373,0.4369,0.4381,0.4378,0.4379,0.438,0.4374,0.4371,0.4371,0.4382,0.4382,0.4382]},{"header":{"parameterUnit":"m.s-1","parameterCategory":1,"la1":30.2991,"la2":30.254,"lo1":-89.0895,"lo2":-89.0444,"dy":0.0017,"dx":0.0017,"nx":28,"ny":28,"refTime":"2025-02-28T03:00:00:Z","depth":0,"parameterNumber":3,"parameterNumberName":"V-component_of_WINDS"},"data":[0,0,0,0,0,0,0,0,0,0,0,0,0,0,0,0,0,0,0,0,0,0,0,0,0,0,0,0,0,0,0,0,0,0,0,0,0,0,0,0,0,0,0,0,0,0,0,0,0,0,0,0,0,0,0,0,0,0,1.2392,1.2391,0,1.2326,1.2325,1.2325,1.2311,1.2312,1.2312,1.2313,1.2243,1.224,1.2238,0,0,0,0,0,0,0,0,0,0,0,0,0,1.2504,1.2502,1.2392,1.2391,1.2391,1.2326,1.2325,1.2325,1.2311,1.2312,1.2312,1.2313,1.2244,1.2241,1.2238,0,0,0,0,0,0,0,0,0,0,0,0,0,1.2448,1.2501,1.2392,1.2376,1.2374,1.2327,1.2325,1.2324,1.2311,1.2312,1.2313,1.2313,1.2244,1.2241,1.2238,1.2201,0,0,1.2227,1.2225,0,0,0,0,0,0,0,0,1.2452,1.2444,1.2379,1.2377,1.2375,1.2328,1.2339,1.2283,1.2311,1.2335,1.2313,1.2314,1.227,1.2265,1.2251,1.2197,1.2194,1.2227,1.2224,1.2223,1.2222,0,0,0,0,0,0,0,1.2455,1.2447,1.2366,1.2378,1.2376,1.2371,1.2364,1.2328,1.2299,1.2333,1.2332,1.2324,1.2269,1.2254,1.2249,1.2193,1.2227,1.2223,1.2221,1.222,1.2106,1.2105,0,0,0,0,0,0,1.2463,1.245,1.2368,1.2364,1.2416,1.2369,1.2361,1.2342,1.2299,1.2294,1.2324,1.2324,1.226,1.2253,1.2246,1.22,1.2223,1.222,1.2218,1.2106,1.2105,1.2104,0,0,0,0,0,0,1.2465,1.2455,1.2371,1.2407,1.2396,1.2366,1.2345,1.234,1.2325,1.2293,1.2287,1.2314,1.226,1.2251,1.2212,1.2197,1.2218,1.2215,1.2108,1.2106,1.2105,1.2107,0,0,0,0,0,0,1.2468,1.2456,1.2443,1.2407,1.2394,1.2338,1.2344,1.2339,1.232,1.2319,1.2282,1.2276,1.226,1.2217,1.2209,1.2193,1.2212,1.2109,1.2107,1.2105,1.2108,1.2106,1.2104,0,0,0,0,0,1.2472,1.2445,1.2442,1.2432,1.2376,1.2338,1.233,1.2313,1.2318,1.2304,1.2283,1.2277,1.22,1.2213,1.2203,1.2186,1.211,1.2107,1.2105,1.2109,1.2106,1.2104,0,0,0,0,0,0,1.2479,1.244,1.2436,1.2397,1.2371,1.2336,1.2317,1.231,1.2281,1.2282,1.2261,1.2253,1.2215,1.2196,1.2212,1.2148,1.2155,1.2151,1.2161,1.2158,1.2156,1.2161,1.2209,0,0,0,0,0,1.2476,1.2449,1.2416,1.2385,1.2372,1.2347,1.2329,1.2318,1.229,1.2278,1.2254,1.2226,1.2196,1.2176,1.2146,1.2105,1.2096,1.2088,1.2086,1.2085,1.2081,1.2058,1.2054,1.2097,1.2097,1.2098,0,0,1.247,1.2445,1.2429,1.2385,1.2364,1.2335,1.2337,1.2307,1.2285,1.2273,1.2235,1.2217,1.2184,1.2144,1.2125,1.2127,1.2067,1.2082,1.2081,1.2078,1.2055,1.2051,1.2047,1.2096,1.2096,1.2097,0,0,1.2443,1.2422,1.2393,1.2372,1.234,1.2323,1.2316,1.2282,1.2269,1.2231,1.2221,1.2194,1.2142,1.2119,1.2101,1.2066,1.2059,1.2056,1.2045,1.2022,1.2019,1.2016,1.2003,1.1998,1.2053,1.2053,1.2053,0,1.2439,1.2396,1.2379,1.2349,1.233,1.2319,1.2289,1.2269,1.2228,1.2215,1.2218,1.2153,1.213,1.2084,1.2076,1.2061,1.2052,1.206,1.2021,1.2018,1.2014,1.2002,1.1997,1.2053,1.2053,1.2053,1.2053,0,1.2392,1.2363,1.2343,1.2305,1.2284,1.2254,1.2232,1.2212,1.2203,1.2185,1.2146,1.2118,1.2082,1.2071,1.2061,1.2023,1.2026,1.2026,1.2032,1.201,1.1998,1.1993,1.2053,1.2053,1.2053,1.2053,0,0,1.2368,1.2321,1.2314,1.2296,1.226,1.2236,1.2206,1.2172,1.2155,1.2127,1.21,1.2057,1.2056,1.2035,1.2023,1.2003,1.1976,1.2005,1.2004,1.2,1.1932,1.1932,1.1927,1.1972,1.1971,1.197,1.1935,0,1.2337,1.2283,1.2267,1.2221,1.2193,1.2182,1.2155,1.213,1.2113,1.2086,1.2067,1.2036,1.2038,1.2025,1.2005,1.1984,1.1962,1.1986,1.1946,1.1945,1.1954,1.192,1.192,1.1888,1.193,1.1929,1.1928,0,1.2293,1.2265,1.2217,1.2184,1.2172,1.2148,1.2115,1.209,1.206,1.2049,1.2026,1.2015,1.1982,1.1991,1.1945,1.1961,1.1944,1.1931,1.1929,1.1924,1.1935,1.1914,1.1877,1.1872,1.1921,1.1921,1.1922,0,1.228,1.223,1.2195,1.218,1.2141,1.2124,1.2107,1.2078,1.2059,1.2029,1.2016,1.1984,1.1965,1.194,1.192,1.1929,1.1875,1.1883,1.1864,1.1865,1.1853,1.1854,1.1813,1.1843,1.1843,1.1843,1.1843,0,1.2246,1.2217,1.2188,1.2167,1.2134,1.2115,1.2082,1.2064,1.2038,1.2012,1.2,1.1976,1.1952,1.1924,1.1908,1.1872,1.1864,1.1853,1.1849,1.1854,1.1855,1.1842,1.1843,1.1842,1.1842,1.1842,1.1842,0,1.2225,1.2205,1.2166,1.2132,1.2123,1.21,1.207,1.2048,1.2031,1.1998,1.1989,1.1962,1.1928,1.1906,1.1863,1.1853,1.1813,1.1809,1.1823,1.1821,1.1804,1.1805,1.1752,1.1743,1.178,1.1779,1.1779,0,1.2205,1.2183,1.2146,1.2129,1.2111,1.2083,1.2063,1.2043,1.2023,1.1987,1.1969,1.1935,1.1907,1.1854,1.1829,1.1796,1.1792,1.1775,1.1786,1.1792,1.1791,1.1792,1.1789,1.1773,1.1773,1.1773,1.1772,0,1.2171,1.2162,1.2135,1.2103,1.208,1.2054,1.2028,1.2014,1.1989,1.1967,1.1933,1.1911,1.1868,1.1834,1.1798,1.1779,1.1771,1.1769,1.1763,1.1767,1.1776,1.177,1.1817,1.177,1.177,1.1771,1.1771,1.1771,1.2149,1.2129,1.21,1.2069,1.2048,1.2024,1.2002,1.1982,1.1953,1.1917,1.1907,1.1871,1.1842,1.1794,1.1774,1.1745,1.1747,1.1738,1.1736,1.1734,1.1733,1.1781,1.1739,1.1739,1.1739,1.1739,1.1739,0,1.2114,1.2096,1.2068,1.2032,1.2008,1.2003,1.1974,1.1954,1.1923,1.1896,1.1869,1.183,1.1797,1.177,1.1735,1.1718,1.1713,1.1709,1.171,1.1705,1.1734,1.1743,1.1713,1.1713,1.1713,1.1713,1.1713,1.1713,1.2093,1.2058,1.2046,1.1999,1.198,1.1946,1.193,1.1907,1.1886,1.1843,1.1816,1.1799,1.1771,1.1735,1.1704,1.1697,1.1685,1.1682,1.1673,1.1701,1.1703,1.1706,1.1714,1.1679,1.1679,1.1647,1.1647,1.1647]}]]